Terminal Aerodrome Forecast
Issued by NWS Quad Cities IA IL

Home | Current Version | Previous Version | Text Only | Print | Product List | Glossary On
Versions: 1 2 3 4 5 6 7 8 9 10 11 12 13 14 15 16 17 18 19 20 21 22 23 24 25 26 27 28 29 30 31 32 33
514
FTUS43 KDVN 241738
TAFDBQ
TAF
KDBQ 241738Z 2418/2518 25016KT P6SM BKN090
     FM242100 28010KT P6SM VCSH SCT030 OVC070
     FM242300 35010KT 6SM -RA BR SCT017 OVC035
     FM250100 02012KT 4SM -RA BR OVC010
     FM250500 05015KT 3SM -RA BR OVC007
     FM250900 05018G25KT 3SM -RA BR OVC006=

USA.gov is the U.S. government's official web portal to all federal, state and local government web resources and services.